When you browse on this site, cookies collect data to enhance your experience and personalize the content and advertising you see.
Visit our Privacy Policy to learn more. By continuing to use the site, you agree to this use of cookies and data.
  • In Switzerland
  • List of Countries
  • For 7 days
  • Water Temperature
  • Weather Map
  • Weather Widgets
  • user-avatar
    Login

    Hourly Weather Casper

    Today, 6 June, Saturday

    Time Temperature Precipitation Wind Pressure Humidity
    00:00 +24°C° 0 mm 7 mps 629 mmHg 34%
    01:00 +23°C° 0 mm 8 mps 628 mmHg 38%
    02:00 +22°C° 0 mm 9 mps 628 mmHg 41%
    03:00 +22°C° 0 mm 9 mps 628 mmHg 43%
    04:00 +22°C° 0 mm 9 mps 627 mmHg 44%
    05:00 +21°C° 0 mm 8 mps 627 mmHg 46%
    06:00 +22°C° 0 mm 8 mps 627 mmHg 45%
    07:00 +23°C° 0 mm 8 mps 627 mmHg 43%
    08:00 +24°C° 0 mm 8 mps 627 mmHg 42%
    09:00 +26°C° 0 mm 7 mps 627 mmHg 38%
    10:00 +27°C° 0 mm 7 mps 627 mmHg 34%
    11:00 +29°C° 0 mm 7 mps 627 mmHg 30%
    12:00 +23°C° 1.9 mm 7 mps 626 mmHg 45%
    13:00 +18°C° 1.9 mm 7 mps 624 mmHg 61%
    14:00 +12°C° 1.9 mm 7 mps 622 mmHg 76%
    15:00 +15°C° 0.6 mm 9 mps 623 mmHg 65%
    16:00 +17°C° 0.6 mm 11 mps 623 mmHg 54%
    17:00 +18°C° 0.6 mm 13 mps 623 mmHg 43%
    18:00 +17°C° 0 mm 13 mps 622 mmHg 45%
    19:00 +17°C° 0 mm 13 mps 622 mmHg 47%
    20:00 +15°C° 0 mm 12 mps 621 mmHg 49%
    21:00 +15°C° 0 mm 12 mps 621 mmHg 46%
    22:00 +16°C° 0 mm 11 mps 622 mmHg 44%
    23:00 +16°C° 0 mm 10 mps 622 mmHg 42%

    Tomorrow, 7 June, Sunday

    Time Temperature Precipitation Wind Pressure Humidity
    00:00 +15°C° 0 mm 9 mps 622 mmHg 49%
    01:00 +13°C° 0 mm 8 mps 621 mmHg 55%
    02:00 +12°C° 0 mm 7 mps 621 mmHg 62%
    03:00 +13°C° 0 mm 6 mps 622 mmHg 60%
    04:00 +12°C° 0 mm 5 mps 622 mmHg 59%
    05:00 +12°C° 0 mm 4 mps 622 mmHg 58%
    06:00 +14°C° 0 mm 6 mps 623 mmHg 52%
    07:00 +16°C° 0 mm 8 mps 623 mmHg 46%
    08:00 +18°C° 0 mm 10 mps 624 mmHg 40%
    09:00 +19°C° 0 mm 9 mps 624 mmHg 36%
    10:00 +21°C° 0 mm 9 mps 624 mmHg 33%
    11:00 +22°C° 0 mm 9 mps 624 mmHg 29%
    12:00 +21°C° 0.1 mm 9 mps 623 mmHg 35%
    13:00 +19°C° 0.1 mm 9 mps 623 mmHg 41%
    14:00 +18°C° 0.1 mm 9 mps 622 mmHg 46%
    15:00 +16°C° 1.1 mm 9 mps 622 mmHg 55%
    16:00 +13°C° 1.1 mm 9 mps 622 mmHg 64%
    17:00 +11°C° 1.1 mm 10 mps 621 mmHg 73%
    18:00 +10°C° 0.1 mm 9 mps 622 mmHg 70%
    19:00 +10°C° 0.1 mm 9 mps 622 mmHg 68%
    20:00 +10°C° 0.1 mm 8 mps 623 mmHg 66%
    21:00 +9°C° 0 mm 8 mps 624 mmHg 59%
    22:00 +9°C° 0 mm 7 mps 624 mmHg 53%
    23:00 +9°C° 0 mm 7 mps 625 mmHg 47%

    Day after tomorrow, 8 June, Monday

    Time Temperature Precipitation Wind Pressure Humidity
    00:00 +8°C° 0 mm 7 mps 625 mmHg 46%
    01:00 +7°C° 0 mm 6 mps 625 mmHg 45%
    02:00 +5°C° 0 mm 6 mps 624 mmHg 44%
    03:00 +4°C° 0 mm 6 mps 625 mmHg 45%
    04:00 +4°C° 0 mm 6 mps 625 mmHg 46%
    05:00 +3°C° 0 mm 6 mps 625 mmHg 47%
    06:00 +5°C° 0 mm 7 mps 626 mmHg 41%
    07:00 +6°C° 0 mm 9 mps 626 mmHg 35%
    08:00 +8°C° 0 mm 11 mps 627 mmHg 29%
    09:00 +9°C° 0 mm 11 mps 627 mmHg 26%
    10:00 +12°C° 0 mm 11 mps 627 mmHg 22%
    11:00 +13°C° 0 mm 12 mps 628 mmHg 19%
    12:00 +13°C° 0 mm 12 mps 628 mmHg 18%
    13:00 +14°C° 0 mm 12 mps 627 mmHg 17%
    14:00 +15°C° 0 mm 12 mps 627 mmHg 15%
    15:00 +15°C° 0 mm 12 mps 628 mmHg 15%
    16:00 +15°C° 0 mm 12 mps 628 mmHg 14%
    17:00 +15°C° 0 mm 12 mps 628 mmHg 13%
    18:00 +13°C° 0 mm 10 mps 628 mmHg 21%
    19:00 +11°C° 0 mm 8 mps 628 mmHg 28%
    20:00 +9°C° 0 mm 5 mps 628 mmHg 35%
    21:00 +9°C° 0.1 mm 5 mps 628 mmHg 40%
    22:00 +8°C° 0.1 mm 4 mps 628 mmHg 45%
    23:00 +7°C° 0.1 mm 4 mps 628 mmHg 50%

    9 June, Tuesday

    Time Temperature Precipitation Wind Pressure Humidity
    00:00 +7°C° 0.1 mm 4 mps 628 mmHg 51%
    01:00 +6°C° 0.1 mm 4 mps 628 mmHg 52%
    02:00 +6°C° 0.1 mm 4 mps 628 mmHg 53%
    03:00 +6°C° 0 mm 4 mps 628 mmHg 54%
    04:00 +5°C° 0 mm 4 mps 628 mmHg 54%
    05:00 +5°C° 0 mm 4 mps 628 mmHg 55%
    06:00 +5°C° 0 mm 6 mps 628 mmHg 48%
    07:00 +8°C° 0 mm 7 mps 629 mmHg 40%
    08:00 +10°C° 0 mm 8 mps 629 mmHg 33%
    09:00 +12°C° 0 mm 10 mps 630 mmHg 28%
    10:00 +13°C° 0 mm 12 mps 630 mmHg 23%
    11:00 +15°C° 0 mm 14 mps 630 mmHg 18%
    12:00 +17°C° 0 mm 13 mps 630 mmHg 18%
    13:00 +17°C° 0 mm 12 mps 630 mmHg 18%
    14:00 +18°C° 0 mm 11 mps 630 mmHg 18%
    15:00 +18°C° 0 mm 11 mps 630 mmHg 18%
    16:00 +18°C° 0 mm 10 mps 630 mmHg 19%
    17:00 +18°C° 0 mm 10 mps 631 mmHg 20%
    18:00 +16°C° 0 mm 8 mps 630 mmHg 23%
    19:00 +15°C° 0 mm 6 mps 630 mmHg 26%
    20:00 +14°C° 0 mm 4 mps 630 mmHg 29%
    21:00 +13°C° 0 mm 5 mps 630 mmHg 33%
    22:00 +12°C° 0 mm 5 mps 630 mmHg 37%
    23:00 +12°C° 0 mm 5 mps 631 mmHg 41%

    10 June, Wednesday

    Time Temperature Precipitation Wind Pressure Humidity
    00:00 +10°C° 0 mm 5 mps 630 mmHg 46%
    01:00 +10°C° 0 mm 5 mps 630 mmHg 50%
    02:00 +9°C° 0 mm 6 mps 630 mmHg 54%
    03:00 +9°C° 0 mm 5 mps 630 mmHg 56%
    04:00 +9°C° 0 mm 5 mps 630 mmHg 58%
    05:00 +8°C° 0 mm 4 mps 630 mmHg 60%
    06:00 +10°C° 0 mm 5 mps 631 mmHg 54%
    07:00 +13°C° 0 mm 6 mps 632 mmHg 48%
    08:00 +15°C° 0 mm 6 mps 633 mmHg 43%
    09:00 +17°C° 0 mm 6 mps 634 mmHg 38%
    10:00 +18°C° 0 mm 7 mps 635 mmHg 32%
    11:00 +21°C° 0 mm 7 mps 635 mmHg 27%
    12:00 +22°C° 0 mm 6 mps 635 mmHg 27%
    13:00 +22°C° 0 mm 6 mps 635 mmHg 26%
    14:00 +23°C° 0 mm 6 mps 635 mmHg 26%
    15:00 +23°C° 0 mm 5 mps 635 mmHg 26%
    16:00 +22°C° 0 mm 5 mps 635 mmHg 26%
    17:00 +22°C° 0 mm 5 mps 635 mmHg 26%
    18:00 +20°C° 0 mm 5 mps 635 mmHg 33%
    19:00 +19°C° 0 mm 5 mps 635 mmHg 39%
    20:00 +16°C° 0 mm 6 mps 634 mmHg 46%
    21:00 +14°C° 0 mm 5 mps 634 mmHg 50%
    22:00 +13°C° 0 mm 5 mps 635 mmHg 54%
    23:00 +12°C° 0 mm 5 mps 635 mmHg 59%

    11 June, Thursday

    Time Temperature Precipitation Wind Pressure Humidity
    00:00 +11°C° 0 mm 4 mps 634 mmHg 62%
    01:00 +10°C° 0 mm 3 mps 634 mmHg 64%
    02:00 +9°C° 0 mm 2 mps 634 mmHg 67%
    03:00 +9°C° 0 mm 2 mps 634 mmHg 70%
    04:00 +8°C° 0 mm 2 mps 633 mmHg 74%
    05:00 +9°C° 0 mm 1 mps 633 mmHg 77%
    06:00 +11°C° 0 mm 1 mps 634 mmHg 69%
    07:00 +13°C° 0 mm 1 mps 634 mmHg 61%
    08:00 +15°C° 0 mm 1 mps 635 mmHg 53%
    09:00 +18°C° 0 mm 1 mps 635 mmHg 46%
    10:00 +21°C° 0 mm 1 mps 635 mmHg 39%
    11:00 +23°C° 0 mm 1 mps 636 mmHg 32%
    12:00 +24°C° 0 mm 1 mps 636 mmHg 30%
    13:00 +26°C° 0 mm 1 mps 635 mmHg 27%
    14:00 +27°C° 0 mm 1 mps 635 mmHg 24%
    15:00 +28°C° 0 mm 2 mps 635 mmHg 24%
    16:00 +28°C° 0 mm 3 mps 635 mmHg 23%
    17:00 +28°C° 0 mm 4 mps 635 mmHg 23%
    18:00 +26°C° 0 mm 4 mps 634 mmHg 32%
    19:00 +23°C° 0 mm 5 mps 634 mmHg 42%
    20:00 +20°C° 0 mm 5 mps 634 mmHg 51%
    21:00 +19°C° 0 mm 5 mps 634 mmHg 58%
    22:00 +16°C° 0 mm 6 mps 634 mmHg 65%
    23:00 +15°C° 0 mm 6 mps 634 mmHg 73%
    Show more